Torna al catalogo

STARLINK-30366

AttivoComunicazioniVLEO
NORAD 57749·PAYLOAD·🇺🇸 United States

Lanciato Sep 1, 2023 da Cape Canaveral Space Force Station

Loading…

Prossimi Passaggi (prossime 24 ore)

TLE

AggiornatoSource: CelesTrak SupGP

Epoca: Sep 14, 2026, 21:58 UTC

1 57749C 23131T   26257.91576389 -.00006717  00000+0 -24328-3 0  2573
2 57749  42.9992 187.9197 0001367 261.5081 252.2013 15.27581361    16

Traccia STARLINK-30366 in tempo reale con AllMySat

Download on the App Store